Weather WX

World > North America > United States > New York

Fulton County, New York Regional Weather

Lat: 43.13N, Lon: 74.43W
Wx Zone: NYZ082
Warning FLW WEATHER ALERT - (More Info. Click Here) Warning
Feedback

Fulton County, NY Regional Weather

Expires:201906251300;;052075
ASUS41 KALY 251210
RWRALY

NEW YORK STATE HOURLY WEATHER ROUNDUP
NATIONAL WEATHER SERVICE ALBANY NY
800 AM EDT TUE JUN 25 2019

NOTE: "FAIR" INDICATES FEW OR NO CLOUDS BELOW 12,000 FEET WITH NO
SIGNIFICANT WEATHER AND/OR NO OBSTRUCTIONS TO VISIBILITY.


NYZ032-033-038>043-046>054-057>066-NYZ062>081-082-084-251300-
EAST

  
CITY           SKY/WX    TMP DP  RH WIND       PRES   REMARKS
ALBANY         LGT RAIN  68  61  78 S6        29.81R                  
GLENS FALLS    LGT RAIN  65  61  87 CALM      29.80S                  
POUGHKEEPSIE   LGT RAIN  71  67  87 SE5       29.83R                  
NEWBURGH       LGT RAIN  70  68  94 SE7       29.83S FOG              
MONTGOMERY     CLOUDY    69  67  93 CALM      29.82R                  
WHITE PLAINS   RAIN      69  68  96 SE5       29.86R VSB 1            
ISLIP          CLOUDY    71  69  93 S7        29.86R                  
NEW YORK CITY  TSTM      73  70  90 S5        29.83F                  
CENTRAL PARK   LGT RAIN  72  71  97 E5        29.85F FOG              
$$


SKY/WX - Weather  TMP - Temperature  DP - Dew Point  RH - Relative Humidity
WIND - Wind Direction/Speed PRES - Barometric Pressure VSB - Visibility
WCI - Wind Chill Index E13G22 Wind - East Wind 13 mph/Gusts of 22 mph